Location: Caltech
(34.1382°N, 118.1253°W)
Time: 12:22:21
(UTC-07:00)

Iridium 18 - Visible Passes

Search period start: 05 July 2015 00:00
Search period end: 15 July 2015 00:00
Orbit: 776 x 779 km, 86.4° (Epoch: 05 July)

Date Brightness Start Highest point End Pass type
(mag) Time Alt. Az. Time Alt. Az. Time Alt. Az.
05 Jul 5.4 03:38:08 47° SSW 03:39:36 72° W 03:44:50 10° N visible
06 Jul 5.9 03:04:57 47° SE 03:06:08 59° E 03:11:15 10° N visible
06 Jul 7.4 04:45:27 11° W 04:47:22 13° WNW 04:49:27 10° NW visible
07 Jul 6.9 02:31:46 28° ESE 02:32:43 30° E 02:37:16 10° NNE visible
07 Jul 6.7 04:12:15 23° WSW 04:13:28 25° W 04:17:38 10° NNW visible
08 Jul 7.7 01:58:33 15° E 01:59:23 16° E 02:02:32 10° NE visible
08 Jul 5.8 03:39:02 44° WSW 03:39:45 47° W 03:44:46 10° N visible
09 Jul 5.4 03:05:49 78° S 03:06:11 88° E 03:11:26 10° N visible
10 Jul 6.3 02:32:35 45° E 02:32:44 45° E 02:37:42 10° NNE visible
10 Jul 7.2 04:13:04 16° W 04:13:47 17° WNW 04:16:56 10° NW visible
11 Jul 7.3 01:59:21 23° E 01:59:21 23° E 02:03:29 10° NNE visible
11 Jul 6.4 03:39:50 32° W 03:39:56 32° W 03:44:32 10° NNW visible
12 Jul 8.0 01:26:06 12° E 01:26:06 12° E 01:28:02 10° ENE visible
12 Jul 5.6 03:06:34 61° WNW 03:06:34 61° WNW 03:11:27 10° N visible
13 Jul 5.8 02:33:18 63° NE 02:33:18 63° NE 02:37:57 10° N visible
13 Jul 7.6 04:13:48 11° WNW 04:14:09 11° WNW 04:15:12 10° WNW visible
14 Jul 6.8 02:00:02 33° ENE 02:00:02 33° ENE 02:04:03 10° NNE visible
14 Jul 7.0 03:40:31 21° WNW 03:40:31 21° WNW 03:44:04 10° NNW visible
